TimeEST,TemperatureF,Dew PointF,Humidity,Sea Level PressureIn,VisibilityMPH,Wind Direction,Wind SpeedMPH,Gust SpeedMPH,PrecipitationIn,Events,Conditions,WindDirDegrees,DateUTC
12:53 AM,66.9,64.9,93,30.11,10.0,Calm,Calm,-,0.01,,Scattered Clouds,0,2013-01-20 05:53:00
1:53 AM,64.0,63.0,96,30.10,2.0,NW,3.5,-,N/A,,Clear,310,2013-01-20 06:53:00
2:00 AM,64.4,62.6,94,30.10,1.0,WNW,3.5,-,N/A,,Clear,290,2013-01-20 07:00:00
2:02 AM,64.4,62.6,94,30.10,0.8,West,3.5,-,N/A,,Mist,280,2013-01-20 07:02:00
2:09 AM,62.6,62.6,100,30.10,0.5,West,4.6,-,N/A,Fog,Fog,270,2013-01-20 07:09:00
2:17 AM,62.6,62.6,100,30.10,0.5,West,4.6,-,N/A,Fog,Fog,270,2013-01-20 07:17:00
2:24 AM,62.6,62.6,100,30.10,0.2,West,4.6,-,N/A,Fog,Fog,270,2013-01-20 07:24:00
2:40 AM,62.6,62.6,100,30.10,0.2,WNW,3.5,-,N/A,Fog,Fog,300,2013-01-20 07:40:00
2:53 AM,63.0,62.1,97,30.09,0.2,WNW,3.5,-,N/A,Fog,Fog,290,2013-01-20 07:53:00
3:28 AM,62.6,62.6,100,30.09,0.5,NW,4.6,-,N/A,Fog,Fog,310,2013-01-20 08:28:00
3:40 AM,62.6,60.8,94,30.10,0.8,Calm,Calm,-,N/A,,Mist,0,2013-01-20 08:40:00
3:48 AM,62.6,62.6,100,30.09,1.0,Calm,Calm,-,N/A,,Mist,0,2013-01-20 08:48:00
3:49 AM,63.0,62.1,97,30.09,1.0,Calm,Calm,-,N/A,,Mist,0,2013-01-20 08:49:00
4:02 AM,62.6,62.6,100,30.10,3.0,WNW,3.5,-,N/A,,Overcast,290,2013-01-20 09:02:00
4:19 AM,64.4,62.6,94,30.10,1.8,WNW,3.5,-,N/A,,Overcast,290,2013-01-20 09:19:00
4:35 AM,64.4,62.6,94,30.10,3.0,WNW,3.5,-,N/A,,Overcast,300,2013-01-20 09:35:00
4:44 AM,64.4,62.6,94,30.09,8.0,NW,4.6,-,N/A,,Overcast,310,2013-01-20 09:44:00
4:53 AM,64.0,63.0,96,30.09,8.0,NW,5.8,-,N/A,,Overcast,320,2013-01-20 09:53:00
5:00 AM,64.4,62.6,94,30.09,9.0,NW,5.8,-,N/A,,Overcast,320,2013-01-20 10:00:00
5:53 AM,64.0,63.0,96,30.10,10.0,Calm,Calm,-,N/A,,Overcast,0,2013-01-20 10:53:00
6:33 AM,64.4,62.6,94,30.10,8.0,NW,5.8,-,N/A,,Overcast,310,2013-01-20 11:33:00
6:42 AM,64.4,62.6,94,30.10,6.0,WNW,4.6,-,N/A,,Overcast,300,2013-01-20 11:42:00
6:53 AM,64.0,63.0,96,30.10,4.0,WNW,4.6,-,N/A,,Overcast,300,2013-01-20 11:53:00
7:00 AM,64.4,62.6,94,30.11,0.5,NW,4.6,-,N/A,Fog,Fog,310,2013-01-20 12:00:00
7:53 AM,64.9,63.0,93,30.14,0.5,WNW,5.8,-,N/A,Fog,Fog,300,2013-01-20 12:53:00
8:20 AM,64.4,62.6,94,30.15,0.8,NW,8.1,-,N/A,,Mist,310,2013-01-20 13:20:00
8:53 AM,64.9,64.0,97,30.15,0.8,NNW,5.8,-,N/A,,Overcast,340,2013-01-20 13:53:00
9:00 AM,64.4,64.4,100,30.16,1.5,NNW,5.8,-,N/A,,Overcast,330,2013-01-20 14:00:00
9:09 AM,64.4,64.4,100,30.16,3.0,NNW,5.8,-,N/A,,Overcast,330,2013-01-20 14:09:00
9:53 AM,69.1,66.0,90,30.16,7.0,North,5.8,-,N/A,,Overcast,350,2013-01-20 14:53:00
10:04 AM,69.8,66.2,88,30.16,9.0,North,5.8,-,N/A,,Overcast,350,2013-01-20 15:04:00
10:53 AM,72.0,66.0,81,30.15,10.0,North,5.8,-,N/A,,Mostly Cloudy,350,2013-01-20 15:53:00
11:27 AM,75.2,66.2,73,30.13,10.0,NNE,8.1,-,N/A,,Mostly Cloudy,20,2013-01-20 16:27:00
11:53 AM,73.9,66.0,76,30.12,10.0,NNE,5.8,-,N/A,,Scattered Clouds,30,2013-01-20 16:53:00
12:01 PM,73.4,66.2,78,30.11,10.0,NNE,8.1,-,N/A,,Mostly Cloudy,20,2013-01-20 17:01:00
12:07 PM,73.4,66.2,78,30.11,10.0,NNE,8.1,-,N/A,,Scattered Clouds,20,2013-01-20 17:07:00
12:53 PM,75.0,64.0,69,30.09,10.0,NE,6.9,-,N/A,,Scattered Clouds,40,2013-01-20 17:53:00
1:53 PM,73.9,64.0,71,30.06,10.0,NNE,6.9,-,N/A,,Mostly Cloudy,20,2013-01-20 18:53:00
2:53 PM,73.9,64.0,71,30.06,10.0,NNE,8.1,-,N/A,,Mostly Cloudy,20,2013-01-20 19:53:00
3:53 PM,72.0,64.0,76,30.06,10.0,NNE,4.6,-,N/A,,Overcast,30,2013-01-20 20:53:00
4:53 PM,71.1,64.0,78,30.06,10.0,North,5.8,-,N/A,,Clear,360,2013-01-20 21:53:00
5:53 PM,69.1,64.0,84,30.06,10.0,North,4.6,-,N/A,,Clear,10,2013-01-20 22:53:00
6:53 PM,68.0,64.0,87,30.07,10.0,North,3.5,-,N/A,,Clear,350,2013-01-20 23:53:00
7:53 PM,69.1,64.9,87,30.07,10.0,North,4.6,-,N/A,,Scattered Clouds,350,2013-01-21 00:53:00
8:53 PM,68.0,64.9,90,30.08,10.0,North,3.5,-,N/A,,Scattered Clouds,10,2013-01-21 01:53:00
9:49 PM,68.0,64.4,88,30.09,10.0,North,3.5,-,N/A,,Overcast,360,2013-01-21 02:49:00
9:53 PM,68.0,64.9,90,30.09,10.0,Calm,Calm,-,N/A,,Overcast,0,2013-01-21 02:53:00
10:26 PM,68.0,64.4,88,30.09,10.0,Calm,Calm,-,N/A,,Overcast,0,2013-01-21 03:26:00
10:53 PM,66.0,64.0,93,30.08,10.0,Calm,Calm,-,N/A,,Scattered Clouds,0,2013-01-21 03:53:00
11:53 PM,64.0,62.1,93,30.08,7.0,Calm,Calm,-,N/A,,Clear,0,2013-01-21 04:53:00